Weather History for KPKD - November, 2013

Change the Weather History Date:

Saturday, November 2, 2013

  Actual Average Record
Temperature  
Mean Temperature 34 °F -  
Max Temperature 48 °F 42 °F 72 °F (1978)
Min Temperature 21 °F 25 °F -10 °F (1951)
Degree Days  
Heating Degree Days 30    
Moisture  
Dew Point 26 °F    
Average Humidity 87    
Maximum Humidity 100    
Minimum Humidity 54    
Precipitation  
Precipitation 0.00 in - - ()
Sea Level Pressure  
Sea Level Pressure 30.01 in    
Wind  
Wind Speed 3 mph (WSW)    
Max Wind Speed 9 mph    
Max Gust Speed -    
Visibility 6 miles    
Events Fog    
Averages and records for this station are not official NWS values.
T = Trace of Precipitation, MM = Missing Value Source: NWS Daily Summary

Daily Weather History Graph

Daily Weather History Graph

Search for Another Location

Airport or City:

Trip Planner

Search our weather history database for the weather conditions in past years. The results will help you decide how hot, cold, wet, or windy it might be!

Date:

Astronomy

Nov. 02, 2013 Rise Set
Actual Time 8:04 AM CDT 6:02 PM CDT
Civil Twilight 7:32 AM CDT 6:34 PM CDT
Nautical Twilight 6:56 AM CDT 7:10 PM CDT
Astronomical Twilight 6:21 AM CDT 7:45 PM CDT
Moon 7:00 AM CDT (11/2) 5:35 PM CDT (11/2)
Length of Visible Light 11h 01m
Length of Day
9h 57m
Waning Crescent, 1% of the Moon is Illuminated
Nov 2
Waning Crescent
Nov 3
New
Nov 9
First Quarter
Nov 17
Full
Nov 25
Last Quarter

Hourly Weather History & Observations

Time (CDT) Temp. Windchill Dew Point Humidity Pressure Visibility Wind Dir Wind Speed Gust Speed Precip Events Conditions
12:53 AM 28.0 °F 21.7 °F 26.1 °F 92% 29.93 in 10.0 mi NW 5.8 mph - N/A   Clear
1:53 AM 28.0 °F 21.7 °F 27.0 °F 96% 29.95 in 10.0 mi WNW 5.8 mph - N/A   Clear
2:53 AM 27.0 °F 21.6 °F 26.1 °F 96% 29.96 in 10.0 mi NW 4.6 mph - N/A   Clear
3:53 AM 26.1 °F - 25.0 °F 96% 29.97 in 7.0 mi Calm Calm - N/A   Clear
4:37 AM 24.8 °F - 24.8 °F 100% 29.93 in 1.2 mi Calm Calm - N/A   Clear
4:45 AM 24.8 °F 20.5 °F 23.0 °F 93% 29.94 in 0.5 mi West 3.5 mph - N/A Fog Light Freezing Fog
4:53 AM 24.1 °F 19.7 °F 23.0 °F 96% 29.99 in 1.0 mi West 3.5 mph - N/A   Clear
4:57 AM 24.8 °F 20.5 °F 23.0 °F 93% 29.94 in 3.0 mi West 3.5 mph - N/A   Clear
5:53 AM 25.0 °F - 24.1 °F 96% 30.01 in 6.0 mi Calm Calm - N/A   Clear
5:58 AM 23.0 °F - 21.2 °F 93% 29.96 in 1.8 mi Calm Calm - N/A   Clear
6:08 AM 21.2 °F 16.4 °F 19.4 °F 93% 29.96 in 3.0 mi West 3.5 mph - N/A   Clear
6:16 AM 23.0 °F 18.4 °F 21.2 °F 93% 29.97 in 1.2 mi West 3.5 mph - N/A   Partly Cloudy
6:18 AM 23.0 °F 18.4 °F 21.2 °F 93% 29.97 in 0.8 mi West 3.5 mph - N/A   Mist
6:30 AM 24.8 °F - 21.2 °F 86% 29.97 in 1.0 mi Calm Calm - N/A   Clear
6:37 AM 24.8 °F - 23.0 °F 93% 29.97 in 4.0 mi Calm Calm - N/A   Clear
6:53 AM 26.1 °F - 24.1 °F 92% 30.03 in 7.0 mi Calm Calm - N/A   Clear
7:00 AM 24.8 °F - 24.8 °F 100% 29.97 in 1.5 mi Calm Calm - N/A   Clear
7:08 AM 23.0 °F - 21.2 °F 93% 29.97 in 0.5 mi Calm Calm - N/A Fog Light Freezing Fog
7:17 AM 24.8 °F - 21.2 °F 86% 29.97 in 2.0 mi Calm Calm - N/A   Clear
7:26 AM 24.8 °F - 23.0 °F 93% 29.97 in 6.0 mi Calm Calm - N/A   Clear
7:50 AM 21.2 °F - 19.4 °F 93% 29.98 in 1.5 mi Calm Calm - N/A   Clear
7:53 AM 21.0 °F 16.2 °F 19.9 °F 96% 30.04 in 1.0 mi West 3.5 mph - N/A   Clear
7:56 AM 21.2 °F - 21.2 °F 100% 29.98 in 1.0 mi Calm Calm - N/A   Mist
8:03 AM 23.0 °F - 21.2 °F 93% 29.98 in 0.8 mi Calm Calm - N/A   Mist
8:06 AM 23.0 °F - 21.2 °F 93% 29.98 in 1.0 mi Calm Calm - N/A   Mist
8:10 AM 23.0 °F - 21.2 °F 93% 29.98 in 2.0 mi Calm Calm - N/A   Partly Cloudy
8:27 AM 24.8 °F - 23.0 °F 93% 29.98 in 1.5 mi Calm Calm - N/A   Partly Cloudy
8:32 AM 24.8 °F - 23.0 °F 93% 29.98 in 4.0 mi Calm Calm - N/A   Partly Cloudy
8:53 AM 25.0 °F - 25.0 °F 100% 30.04 in 5.0 mi Calm Calm - N/A   Scattered Clouds
9:53 AM 30.9 °F - 30.0 °F 96% 30.06 in 6.0 mi Calm Calm - N/A   Clear
10:53 AM 37.0 °F - 33.1 °F 86% 30.07 in 10.0 mi Calm Calm - N/A   Clear
11:53 AM 42.1 °F 39.2 °F 33.1 °F 70% 30.08 in 10.0 mi SW 4.6 mph - N/A   Clear
12:53 PM 43.0 °F 41.3 °F 34.0 °F 71% 30.06 in 10.0 mi WSW 3.5 mph - N/A   Clear
1:50 PM 44.6 °F 40.7 °F 33.8 °F 66% 30.01 in 10.0 mi West 6.9 mph - N/A   Mostly Cloudy
1:53 PM 44.1 °F 39.0 °F 33.1 °F 65% 30.06 in 10.0 mi West 9.2 mph - N/A   Mostly Cloudy
2:02 PM 44.6 °F 41.4 °F 33.8 °F 66% 30.00 in 10.0 mi West 5.8 mph - N/A   Scattered Clouds
2:53 PM 46.9 °F - 32.0 °F 56% 30.05 in 10.0 mi WNW 9.2 mph - N/A   Mostly Cloudy
3:53 PM 48.0 °F - 32.0 °F 54% 30.05 in 10.0 mi West 5.8 mph - N/A   Mostly Cloudy
4:53 PM 45.0 °F 42.6 °F 30.9 °F 58% 30.06 in 10.0 mi West 4.6 mph - N/A   Partly Cloudy
5:53 PM 41.0 °F 38.0 °F 32.0 °F 70% 30.06 in 10.0 mi West 4.6 mph - N/A   Clear
6:53 PM 37.9 °F 35.5 °F 30.9 °F 76% 30.05 in 10.0 mi SSE 3.5 mph - N/A   Clear
7:53 PM 30.9 °F 26.2 °F 28.0 °F 89% 30.08 in 10.0 mi SSE 4.6 mph - N/A   Clear
8:53 PM 33.1 °F - 28.9 °F 85% 30.08 in 10.0 mi Calm Calm - N/A   Clear
9:53 PM 32.0 °F 27.5 °F 28.9 °F 88% 30.07 in 10.0 mi SE 4.6 mph - N/A   Clear
10:53 PM 32.0 °F 28.7 °F 28.9 °F 88% 30.07 in 10.0 mi SE 3.5 mph - N/A   Clear
11:53 PM 32.0 °F 26.4 °F 30.0 °F 92% 30.06 in 10.0 mi SE 5.8 mph - N/A   Clear